Station Historical Data
Daily Summary for September 28, 2017 Units:  English    Metric   Both
« Previous Day
Next Day »
Daily Weekly Monthly Yearly Custom
  High: Low: Average:
Temperature: 62.3 °F 51.6 °F 58.9 °F
Dew Point: 51.0 °F 43.9 °F 47.3 °F
Humidity: 75% 55% 66%
Wind Speed: 7.0mph 0.0mph 2.1mph
Wind Gust: 12.0mph - -
Wind- - WNW
Pressure: 30.08 in 29.94 in -
Precipitation: 0.00 in    
Historical Graphs
 
 
Tabular Data for September 28, 2017
Time Temperature Dew Point Pressure Wind Wind Speed Wind Gust Humidity Rainfall Rate (Hourly)
00:04 61.6 °F 50.9 °F 29.94 in NW 2.0 mph 8.0 mph 68% 0.00 in
00:09 61.3 °F 50.6 °F 29.94 in NW 1.0 mph 5.0 mph 68% 0.00 in
00:14 61.2 °F 50.6 °F 29.94 in NW 1.0 mph 5.0 mph 68% 0.00 in
00:19 60.9 °F 50.7 °F 29.94 in WNW 1.0 mph 4.0 mph 69% 0.00 in
00:24 60.7 °F 50.5 °F 29.94 in Calm     69% 0.00 in
00:29 60.5 °F 50.7 °F 29.94 in Calm   3.0 mph 70% 0.00 in
00:34 60.4 °F 50.6 °F 29.94 in WNW 1.0 mph 6.0 mph 70% 0.00 in
00:39 60.3 °F 50.5 °F 29.95 in WNW 2.0 mph 6.0 mph 70% 0.00 in
00:44 60.3 °F 50.9 °F 29.95 in WNW 2.0 mph 4.0 mph 71% 0.00 in
00:49 60.1 °F 50.7 °F 29.95 in WNW 2.0 mph 4.0 mph 71% 0.00 in
00:54 60.0 °F 50.6 °F 29.95 in WNW 1.0 mph 5.0 mph 71% 0.00 in
00:59 59.9 °F 50.5 °F 29.95 in Calm   3.0 mph 71% 0.00 in
01:04 59.8 °F 50.4 °F 29.95 in WNW 1.0 mph 3.0 mph 71% 0.00 in
01:09 59.7 °F 50.7 °F 29.95 in WNW 1.0 mph 4.0 mph 72% 0.00 in
01:14 59.7 °F 50.7 °F 29.95 in West 4.0 mph 4.0 mph 72% 0.00 in
01:19 59.8 °F 50.8 °F 29.95 in WNW 1.0 mph 6.0 mph 72% 0.00 in
01:24 59.9 °F 50.8 °F 29.95 in WNW 3.0 mph 4.0 mph 72% 0.00 in
01:29 60.0 °F 50.6 °F 29.95 in Calm   4.0 mph 71% 0.00 in
01:34 60.1 °F 50.7 °F 29.95 in WNW 2.0 mph 5.0 mph 71% 0.00 in
01:39 60.2 °F 50.8 °F 29.95 in WNW 2.0 mph 6.0 mph 71% 0.00 in
01:44 60.2 °F 50.8 °F 29.95 in WNW 2.0 mph 6.0 mph 71% 0.00 in
01:49 60.2 °F 50.4 °F 29.95 in WNW 1.0 mph 5.0 mph 70% 0.00 in
01:54 60.2 °F 50.8 °F 29.95 in Calm   3.0 mph 71% 0.00 in
01:59 60.3 °F 50.9 °F 29.96 in Calm   6.0 mph 71% 0.00 in
02:04 60.4 °F 50.6 °F 29.96 in WNW 3.0 mph 12.0 mph 70% 0.00 in
02:09 60.5 °F 51.0 °F 29.95 in WNW 2.0 mph 3.0 mph 71% 0.00 in
02:14 60.5 °F 51.0 °F 29.96 in Calm   5.0 mph 71% 0.00 in
02:19 60.4 °F 50.6 °F 29.95 in NNW 6.0 mph 11.0 mph 70% 0.00 in
02:24 60.3 °F 50.5 °F 29.96 in NW 4.0 mph 12.0 mph 70% 0.00 in
02:29 60.3 °F 50.1 °F 29.96 in Calm   6.0 mph 69% 0.00 in
02:34 60.2 °F 50.0 °F 29.96 in NW 2.0 mph 6.0 mph 69% 0.00 in
02:39 60.0 °F 49.8 °F 29.96 in WNW 2.0 mph 5.0 mph 69% 0.00 in
02:44 59.9 °F 49.7 °F 29.96 in NW 3.0 mph 9.0 mph 69% 0.00 in
02:49 59.9 °F 49.3 °F 29.96 in NW 4.0 mph 11.0 mph 68% 0.00 in
02:54 59.9 °F 48.9 °F 29.96 in NNW 4.0 mph 11.0 mph 67% 0.00 in
02:59 59.9 °F 48.9 °F 29.96 in NW 2.0 mph 5.0 mph 67% 0.00 in
03:04 59.9 °F 48.9 °F 29.96 in NW 2.0 mph 7.0 mph 67% 0.00 in
03:09 59.8 °F 48.8 °F 29.96 in NW 3.0 mph 7.0 mph 67% 0.00 in
03:14 59.7 °F 48.7 °F 29.96 in WNW 5.0 mph 9.0 mph 67% 0.00 in
03:19 59.7 °F 48.7 °F 29.96 in Calm   9.0 mph 67% 0.00 in
03:24 59.6 °F 48.6 °F 29.96 in NNW 4.0 mph 5.0 mph 67% 0.00 in
03:29 59.4 °F 48.8 °F 29.97 in NW 5.0 mph 11.0 mph 68% 0.00 in
03:34 59.3 °F 48.7 °F 29.97 in NNW 3.0 mph 11.0 mph 68% 0.00 in
03:39 59.1 °F 48.5 °F 29.97 in NNW 2.0 mph 7.0 mph 68% 0.00 in
03:44 58.9 °F 48.4 °F 29.96 in NW 2.0 mph 7.0 mph 68% 0.00 in
03:49 58.9 °F 48.0 °F 29.97 in NW 2.0 mph 9.0 mph 67% 0.00 in
03:54 58.9 °F 48.0 °F 29.96 in NNW 3.0 mph 9.0 mph 67% 0.00 in
03:59 58.8 °F 47.9 °F 29.96 in NNW 3.0 mph 8.0 mph 67% 0.00 in
04:04 58.7 °F 47.8 °F 29.97 in NNW 2.0 mph 8.0 mph 67% 0.00 in
04:09 58.7 °F 47.8 °F 29.97 in NW 1.0 mph 10.0 mph 67% 0.00 in
04:14 58.5 °F 47.6 °F 29.96 in NNW 4.0 mph 7.0 mph 67% 0.00 in
04:19 58.5 °F 47.6 °F 29.96 in NW 2.0 mph 6.0 mph 67% 0.00 in
04:24 58.3 °F 47.8 °F 29.97 in NW 3.0 mph 7.0 mph 68% 0.00 in
04:29 58.2 °F 47.7 °F 29.97 in NW 2.0 mph 7.0 mph 68% 0.00 in
04:34 58.1 °F 47.2 °F 29.97 in NW 2.0 mph 8.0 mph 67% 0.00 in
04:39 57.9 °F 47.0 °F 29.97 in NW 2.0 mph 8.0 mph 67% 0.00 in
04:44 57.8 °F 47.3 °F 29.97 in NW 2.0 mph 7.0 mph 68% 0.00 in
04:49 57.6 °F 47.1 °F 29.98 in NW 2.0 mph 7.0 mph 68% 0.00 in
04:54 57.4 °F 46.9 °F 29.98 in NW 2.0 mph 7.0 mph 68% 0.00 in
04:59 57.0 °F 46.5 °F 29.98 in NW 2.0 mph 7.0 mph 68% 0.00 in
05:04 56.7 °F 46.6 °F 29.98 in Calm   7.0 mph 69% 0.00 in
05:09 56.3 °F 46.3 °F 29.98 in WNW 1.0 mph 4.0 mph 69% 0.00 in
05:14 56.0 °F 46.4 °F 29.98 in NNW 2.0 mph 4.0 mph 70% 0.00 in
05:19 55.8 °F 46.2 °F 29.98 in Calm   4.0 mph 70% 0.00 in
05:24 55.7 °F 46.1 °F 29.98 in NW 2.0 mph 3.0 mph 70% 0.00 in
05:29 55.4 °F 46.2 °F 29.98 in NW 2.0 mph 4.0 mph 71% 0.00 in
05:34 55.3 °F 46.1 °F 29.98 in NW 1.0 mph 4.0 mph 71% 0.00 in
05:39 55.0 °F 46.1 °F 29.98 in NW 1.0 mph 4.0 mph 72% 0.00 in
05:44 54.9 °F 46.4 °F 29.99 in NW 1.0 mph 6.0 mph 73% 0.00 in
05:54 55.2 °F 46.3 °F 29.98 in WNW 1.0 mph 5.0 mph 72% 0.00 in
05:59 55.2 °F 46.3 °F 29.98 in West 1.0 mph 4.0 mph 72% 0.00 in
06:04 55.2 °F 46.3 °F 29.98 in WNW 1.0 mph 4.0 mph 72% 0.00 in
06:09 55.1 °F 46.2 °F 29.98 in Calm   3.0 mph 72% 0.00 in
06:14 55.0 °F 46.5 °F 29.98 in WNW 2.0 mph 2.0 mph 73% 0.00 in
06:19 55.1 °F 46.6 °F 29.99 in WNW 1.0 mph 4.0 mph 73% 0.00 in
06:24 55.3 °F 46.4 °F 29.99 in WNW 2.0 mph 4.0 mph 72% 0.00 in
06:29 55.4 °F 46.5 °F 29.99 in WNW 2.0 mph 4.0 mph 72% 0.00 in
06:34 55.4 °F 46.5 °F 29.99 in WNW 1.0 mph 4.0 mph 72% 0.00 in
06:44 55.5 °F 46.6 °F 29.99 in WNW 2.0 mph 5.0 mph 72% 0.00 in
06:54 55.6 °F 46.7 °F 29.99 in WNW 2.0 mph 4.0 mph 72% 0.00 in
06:59 55.8 °F 46.9 °F 29.99 in North 3.0 mph 4.0 mph 72% 0.00 in
07:04 56.0 °F 47.1 °F 29.99 in NW 2.0 mph 5.0 mph 72% 0.00 in
07:09 56.1 °F 47.2 °F 30.00 in NW 2.0 mph 5.0 mph 72% 0.00 in
07:14 56.1 °F 47.2 °F 30.00 in WNW 1.0 mph 5.0 mph 72% 0.00 in
07:19 56.1 °F 47.2 °F 30.00 in NW 3.0 mph 8.0 mph 72% 0.00 in
07:24 56.1 °F 47.2 °F 30.00 in WNW 2.0 mph 6.0 mph 72% 0.00 in
07:29 56.1 °F 47.2 °F 30.00 in WNW 2.0 mph 4.0 mph 72% 0.00 in
07:34 56.2 °F 47.7 °F 30.00 in WNW 2.0 mph 4.0 mph 73% 0.00 in
07:39 56.5 °F 47.6 °F 30.00 in NNW 1.0 mph 6.0 mph 72% 0.00 in
07:44 56.8 °F 47.9 °F 30.00 in WNW 4.0 mph 7.0 mph 72% 0.00 in
07:49 56.9 °F 47.6 °F 30.01 in NNW 1.0 mph 5.0 mph 71% 0.00 in
07:54 57.0 °F 47.3 °F 30.01 in WNW 6.0 mph 8.0 mph 70% 0.00 in
07:59 57.1 °F 47.4 °F 30.01 in NW 2.0 mph 9.0 mph 70% 0.00 in
08:04 57.3 °F 47.6 °F 30.01 in NW 3.0 mph 9.0 mph 70% 0.00 in
08:09 57.5 °F 48.2 °F 30.01 in NW 3.0 mph 7.0 mph 71% 0.00 in
08:14 57.5 °F 47.8 °F 30.01 in WNW 2.0 mph 6.0 mph 70% 0.00 in
08:19 57.6 °F 47.9 °F 30.01 in WNW 2.0 mph 7.0 mph 70% 0.00 in
08:24 57.6 °F 47.9 °F 30.01 in WNW 3.0 mph 7.0 mph 70% 0.00 in
08:29 57.6 °F 47.9 °F 30.01 in NW 2.0 mph 7.0 mph 70% 0.00 in
08:34 57.7 °F 48.4 °F 30.01 in NW 3.0 mph 8.0 mph 71% 0.00 in
08:39 57.9 °F 48.6 °F 30.01 in Calm   7.0 mph 71% 0.00 in
08:44 58.0 °F 48.6 °F 30.01 in WNW 5.0 mph 9.0 mph 71% 0.00 in
08:49 58.1 °F 48.7 °F 30.02 in NNW 4.0 mph 8.0 mph 71% 0.00 in
08:54 58.7 °F 49.3 °F 30.02 in North 1.0 mph 5.0 mph 71% 0.00 in
08:59 58.8 °F 49.0 °F 30.02 in NW 1.0 mph 8.0 mph 70% 0.00 in
09:04 58.5 °F 48.4 °F 30.02 in WNW 3.0 mph 9.0 mph 69% 0.00 in
09:09 58.6 °F 48.8 °F 30.02 in WNW 3.0 mph 9.0 mph 70% 0.00 in
09:14 58.6 °F 48.5 °F 30.02 in NNE 6.0 mph 10.0 mph 69% 0.00 in
09:19 58.3 °F 48.6 °F 30.02 in WNW 1.0 mph 7.0 mph 70% 0.00 in
09:24 58.6 °F 48.5 °F 30.02 in WNW 3.0 mph 9.0 mph 69% 0.00 in
09:29 59.0 °F 48.8 °F 30.02 in WNW 3.0 mph 9.0 mph 69% 0.00 in
09:34 60.1 °F 48.7 °F 30.02 in WNW 4.0 mph 9.0 mph 66% 0.00 in
09:39 60.9 °F 47.8 °F 30.02 in WNW 5.0 mph 10.0 mph 62% 0.00 in
09:44 60.0 °F 47.8 °F 30.02 in WNW 5.0 mph 10.0 mph 64% 0.00 in
09:49 59.3 °F 47.9 °F 30.02 in NNW 1.0 mph 10.0 mph 66% 0.00 in
09:54 59.4 °F 48.0 °F 30.02 in WNW 4.0 mph 6.0 mph 66% 0.00 in
09:59 60.6 °F 48.4 °F 30.03 in NW 3.0 mph 9.0 mph 64% 0.00 in
10:04 60.2 °F 47.1 °F 30.03 in NNW 3.0 mph 9.0 mph 62% 0.00 in
10:09 60.3 °F 46.4 °F 30.03 in NW 3.0 mph 9.0 mph 60% 0.00 in
10:14 59.9 °F 46.8 °F 30.03 in NNW 4.0 mph 8.0 mph 62% 0.00 in
10:19 59.4 °F 46.8 °F 30.03 in North 3.0 mph 7.0 mph 63% 0.00 in
10:24 59.2 °F 47.0 °F 30.04 in North 1.0 mph 6.0 mph 64% 0.00 in
10:29 59.1 °F 46.9 °F 30.04 in North 2.0 mph 7.0 mph 64% 0.00 in
10:34 59.4 °F 47.2 °F 30.03 in NNW 2.0 mph 7.0 mph 64% 0.00 in
10:39 59.8 °F 47.2 °F 30.03 in NNW 2.0 mph 6.0 mph 63% 0.00 in
10:44 60.0 °F 47.8 °F 30.03 in NNW 2.0 mph 7.0 mph 64% 0.00 in
10:49 59.8 °F 48.0 °F 30.03 in NNW 3.0 mph 7.0 mph 65% 0.00 in
10:54 59.8 °F 48.0 °F 30.03 in North 5.0 mph 5.0 mph 65% 0.00 in
10:59 59.9 °F 48.5 °F 30.03 in NNE 2.0 mph 6.0 mph 66% 0.00 in
11:04 60.3 °F 48.1 °F 30.03 in NNW 5.0 mph 9.0 mph 64% 0.00 in
11:09 60.2 °F 47.1 °F 30.04 in North 3.0 mph 8.0 mph 62% 0.00 in
11:14 59.9 °F 47.7 °F 30.04 in NNW 1.0 mph 7.0 mph 64% 0.00 in
11:19 60.0 °F 47.4 °F 30.04 in North 3.0 mph 9.0 mph 63% 0.00 in
11:24 59.9 °F 47.7 °F 30.04 in North 4.0 mph 7.0 mph 64% 0.00 in
11:29 60.0 °F 47.8 °F 30.03 in North 3.0 mph 8.0 mph 64% 0.00 in
11:34 60.5 °F 47.4 °F 30.03 in NNW 3.0 mph 8.0 mph 62% 0.00 in
11:39 60.4 °F 46.9 °F 30.04 in NNW 3.0 mph 8.0 mph 61% 0.00 in
11:44 60.4 °F 47.7 °F 30.03 in NNW 3.0 mph 8.0 mph 63% 0.00 in
11:49 60.9 °F 47.8 °F 30.04 in WNW 1.0 mph 7.0 mph 62% 0.00 in
11:54 61.0 °F 47.9 °F 30.04 in North 1.0 mph 9.0 mph 62% 0.00 in
11:59 61.0 °F 47.4 °F 30.03 in NNW 3.0 mph 9.0 mph 61% 0.00 in
12:04 61.2 °F 47.2 °F 30.03 in NNW 2.0 mph 8.0 mph 60% 0.00 in
12:09 60.9 °F 46.5 °F 30.03 in NW 3.0 mph 8.0 mph 59% 0.00 in
12:14 61.1 °F 47.5 °F 30.04 in NW 6.0 mph 8.0 mph 61% 0.00 in
12:19 60.7 °F 46.7 °F 30.03 in NW 2.0 mph 7.0 mph 60% 0.00 in
12:24 60.3 °F 47.2 °F 30.03 in NW 5.0 mph 9.0 mph 62% 0.00 in
12:29 60.3 °F 47.6 °F 30.03 in WNW 4.0 mph 10.0 mph 63% 0.00 in
12:34 60.8 °F 48.5 °F 30.04 in WNW 4.0 mph 10.0 mph 64% 0.00 in
12:39 60.8 °F 47.3 °F 30.03 in NW 2.0 mph 7.0 mph 61% 0.00 in
12:44 60.9 °F 48.2 °F 30.04 in West 1.0 mph 7.0 mph 63% 0.00 in
12:49 60.7 °F 47.6 °F 30.04 in North 7.0 mph 8.0 mph 62% 0.00 in
12:54 60.7 °F 47.6 °F 30.04 in NNW 2.0 mph 10.0 mph 62% 0.00 in
12:59 60.6 °F 47.5 °F 30.04 in NNW 4.0 mph 10.0 mph 62% 0.00 in
13:04 60.7 °F 47.6 °F 30.04 in NNW 3.0 mph 8.0 mph 62% 0.00 in
13:09 60.7 °F 47.2 °F 30.03 in NW 3.0 mph 8.0 mph 61% 0.00 in
13:14 60.6 °F 47.5 °F 30.04 in NW 4.0 mph 8.0 mph 62% 0.00 in
13:19 60.1 °F 47.5 °F 30.04 in NW 5.0 mph 10.0 mph 63% 0.00 in
13:24 59.9 °F 47.3 °F 30.03 in WNW 4.0 mph 10.0 mph 63% 0.00 in
13:29 59.6 °F 47.0 °F 30.03 in NW 4.0 mph 10.0 mph 63% 0.00 in
13:34 59.8 °F 47.6 °F 30.03 in NW 4.0 mph 9.0 mph 64% 0.00 in
13:39 59.8 °F 47.2 °F 30.03 in West 3.0 mph 10.0 mph 63% 0.00 in
13:44 59.7 °F 47.1 °F 30.04 in NNW 7.0 mph 10.0 mph 63% 0.00 in
13:49 59.2 °F 47.4 °F 30.03 in WNW 2.0 mph 8.0 mph 65% 0.00 in
13:54 59.1 °F 47.3 °F 30.03 in WNW 2.0 mph 7.0 mph 65% 0.00 in
13:59 58.8 °F 46.6 °F 30.03 in NW 3.0 mph 10.0 mph 64% 0.00 in
14:04 58.7 °F 47.0 °F 30.03 in NW 4.0 mph 10.0 mph 65% 0.00 in
14:09 58.9 °F 46.7 °F 30.03 in NW 3.0 mph 8.0 mph 64% 0.00 in
14:14 59.0 °F 47.2 °F 30.03 in NW 2.0 mph 7.0 mph 65% 0.00 in
14:19 59.0 °F 46.4 °F 30.03 in NW 4.0 mph 9.0 mph 63% 0.00 in
14:24 58.9 °F 46.3 °F 30.03 in WNW 3.0 mph 10.0 mph 63% 0.00 in
14:29 59.2 °F 46.6 °F 30.04 in NW 4.0 mph 10.0 mph 63% 0.00 in
14:34 59.3 °F 46.3 °F 30.03 in NW 3.0 mph 8.0 mph 62% 0.00 in
14:39 59.7 °F 47.5 °F 30.03 in NW 3.0 mph 7.0 mph 64% 0.00 in
14:44 59.6 °F 47.0 °F 30.04 in Calm   11.0 mph 63% 0.00 in
14:49 59.6 °F 46.1 °F 30.03 in WNW 4.0 mph 11.0 mph 61% 0.00 in
14:54 59.4 °F 46.4 °F 30.04 in NNW 4.0 mph 10.0 mph 62% 0.00 in
14:59 59.2 °F 46.2 °F 30.03 in NW 4.0 mph 10.0 mph 62% 0.00 in
15:04 59.2 °F 46.2 °F 30.03 in NW 4.0 mph 9.0 mph 62% 0.00 in
15:09 59.6 °F 47.0 °F 30.04 in NW 2.0 mph 8.0 mph 63% 0.00 in
15:14 59.5 °F 46.5 °F 30.04 in NW 2.0 mph 8.0 mph 62% 0.00 in
15:19 59.7 °F 47.1 °F 30.03 in Calm   8.0 mph 63% 0.00 in
15:24 59.8 °F 46.7 °F 30.03 in Calm   4.0 mph 62% 0.00 in
15:29 59.9 °F 46.8 °F 30.03 in WNW 4.0 mph 5.0 mph 62% 0.00 in
15:34 59.9 °F 46.4 °F 30.03 in NNW 3.0 mph 8.0 mph 61% 0.00 in
15:39 60.0 °F 46.9 °F 30.03 in NW 3.0 mph 8.0 mph 62% 0.00 in
15:44 60.0 °F 46.5 °F 30.03 in NW 3.0 mph 11.0 mph 61% 0.00 in
15:49 60.1 °F 46.2 °F 30.03 in NW 3.0 mph 9.0 mph 60% 0.00 in
15:54 60.7 °F 46.7 °F 30.03 in NW 3.0 mph 4.0 mph 60% 0.00 in
15:59 60.4 °F 46.4 °F 30.03 in NW 2.0 mph 5.0 mph 60% 0.00 in
16:04 60.2 °F 46.7 °F 30.03 in NNW 2.0 mph 7.0 mph 61% 0.00 in
16:09 60.2 °F 46.3 °F 30.03 in WNW 6.0 mph 8.0 mph 60% 0.00 in
16:14 60.5 °F 47.0 °F 30.03 in WNW 4.0 mph 7.0 mph 61% 0.00 in
16:19 60.9 °F 46.9 °F 30.03 in NNW 4.0 mph 8.0 mph 60% 0.00 in
16:24 60.8 °F 47.3 °F 30.03 in NW 6.0 mph 10.0 mph 61% 0.00 in
16:29 60.8 °F 46.8 °F 30.03 in WNW 4.0 mph 10.0 mph 60% 0.00 in
16:34 61.8 °F 47.8 °F 30.03 in WNW 4.0 mph 9.0 mph 60% 0.00 in
16:39 62.3 °F 46.4 °F 30.03 in NW 3.0 mph 10.0 mph 56% 0.00 in
16:44 62.0 °F 45.6 °F 30.03 in WNW 4.0 mph 10.0 mph 55% 0.00 in
16:49 61.0 °F 45.2 °F 30.03 in WNW 4.0 mph 8.0 mph 56% 0.00 in
16:54 60.6 °F 44.8 °F 30.03 in WNW 3.0 mph 7.0 mph 56% 0.00 in
16:59 60.6 °F 45.7 °F 30.03 in West 1.0 mph 8.0 mph 58% 0.00 in
17:04 60.7 °F 46.3 °F 30.03 in WNW 2.0 mph 8.0 mph 59% 0.00 in
17:09 60.7 °F 45.8 °F 30.03 in West 1.0 mph 6.0 mph 58% 0.00 in
17:14 60.8 °F 46.4 °F 30.03 in WNW 3.0 mph 6.0 mph 59% 0.00 in
17:19 61.1 °F 45.7 °F 30.03 in WNW 3.0 mph 5.0 mph 57% 0.00 in
17:24 61.3 °F 45.9 °F 30.03 in West 2.0 mph 8.0 mph 57% 0.00 in
17:29 61.1 °F 46.2 °F 30.03 in West 3.0 mph 4.0 mph 58% 0.00 in
17:34 60.7 °F 45.8 °F 30.03 in West 3.0 mph 7.0 mph 58% 0.00 in
17:39 60.6 °F 46.2 °F 30.03 in WSW 4.0 mph 7.0 mph 59% 0.00 in
17:44 60.6 °F 45.7 °F 30.03 in West 3.0 mph 7.0 mph 58% 0.00 in
17:49 60.6 °F 46.2 °F 30.03 in WNW 3.0 mph 7.0 mph 59% 0.00 in
17:54 60.5 °F 45.6 °F 30.03 in WNW 3.0 mph 7.0 mph 58% 0.00 in
17:59 60.4 °F 46.4 °F 30.03 in West 4.0 mph 7.0 mph 60% 0.00 in
18:04 60.3 °F 45.9 °F 30.03 in SW 1.0 mph 6.0 mph 59% 0.00 in
18:09 60.2 °F 45.8 °F 30.03 in West 3.0 mph 7.0 mph 59% 0.00 in
18:19 60.0 °F 46.1 °F 30.03 in WNW 2.0 mph 5.0 mph 60% 0.00 in
18:24 59.9 °F 46.0 °F 30.03 in West 1.0 mph 5.0 mph 60% 0.00 in
18:29 59.9 °F 46.0 °F 30.03 in WSW 1.0 mph 4.0 mph 60% 0.00 in
18:34 59.8 °F 45.9 °F 30.03 in WSW 1.0 mph 4.0 mph 60% 0.00 in
18:39 59.7 °F 45.8 °F 30.03 in WSW 2.0 mph 6.0 mph 60% 0.00 in
18:44 59.6 °F 45.7 °F 30.03 in West 2.0 mph 6.0 mph 60% 0.00 in
18:49 59.6 °F 45.7 °F 30.03 in WSW 2.0 mph 4.0 mph 60% 0.00 in
18:54 59.5 °F 45.6 °F 30.03 in Calm   4.0 mph 60% 0.00 in
18:59 59.5 °F 46.0 °F 30.03 in West 4.0 mph 5.0 mph 61% 0.00 in
19:04 59.5 °F 46.0 °F 30.03 in WSW 2.0 mph 6.0 mph 61% 0.00 in
19:09 59.4 °F 45.5 °F 30.03 in WSW 2.0 mph 6.0 mph 60% 0.00 in
19:14 59.4 °F 45.9 °F 30.03 in West 2.0 mph 4.0 mph 61% 0.00 in
19:19 59.4 °F 45.9 °F 30.03 in WNW 1.0 mph 5.0 mph 61% 0.00 in
19:24 59.2 °F 46.2 °F 30.03 in WNW 2.0 mph 4.0 mph 62% 0.00 in
19:29 59.3 °F 46.3 °F 30.03 in West 1.0 mph 4.0 mph 62% 0.00 in
19:34 59.3 °F 46.3 °F 30.03 in West 3.0 mph 3.0 mph 62% 0.00 in
19:39 59.3 °F 46.3 °F 30.03 in Calm   3.0 mph 62% 0.00 in
19:44 59.2 °F 46.2 °F 30.04 in Calm   3.0 mph 62% 0.00 in
19:49 59.2 °F 46.2 °F 30.04 in Calm   3.0 mph 62% 0.00 in
19:54 59.1 °F 46.1 °F 30.04 in Calm   3.0 mph 62% 0.00 in
19:59 59.2 °F 46.6 °F 30.04 in Calm     63% 0.00 in
20:04 59.1 °F 46.5 °F 30.04 in Calm   3.0 mph 63% 0.00 in
20:09 59.1 °F 46.5 °F 30.04 in Calm   3.0 mph 63% 0.00 in
20:14 59.1 °F 46.5 °F 30.04 in Calm     63% 0.00 in
20:19 58.9 °F 46.3 °F 30.04 in Calm     63% 0.00 in
20:24 58.9 °F 46.3 °F 30.04 in Calm     63% 0.00 in
20:29 58.9 °F 46.3 °F 30.04 in Calm     63% 0.00 in
20:34 59.0 °F 46.4 °F 30.04 in West 1.0 mph 3.0 mph 63% 0.00 in
20:39 59.1 °F 46.5 °F 30.04 in Calm   3.0 mph 63% 0.00 in
20:44 59.1 °F 46.5 °F 30.05 in Calm   3.0 mph 63% 0.00 in
20:49 59.0 °F 46.4 °F 30.05 in Calm   3.0 mph 63% 0.00 in
20:54 58.9 °F 46.7 °F 30.05 in Calm     64% 0.00 in
20:59 58.9 °F 46.7 °F 30.05 in ENE 4.0 mph 5.0 mph 64% 0.00 in
21:04 58.8 °F 46.6 °F 30.05 in Calm   7.0 mph 64% 0.00 in
21:09 58.6 °F 46.9 °F 30.05 in NE 1.0 mph 7.0 mph 65% 0.00 in
21:14 58.4 °F 46.7 °F 30.05 in ENE 1.0 mph 3.0 mph 65% 0.00 in
21:19 58.3 °F 47.0 °F 30.06 in Calm   3.0 mph 66% 0.00 in
21:24 58.2 °F 46.9 °F 30.06 in Calm   4.0 mph 66% 0.00 in
21:29 58.2 °F 46.5 °F 30.06 in NE 1.0 mph 4.0 mph 65% 0.00 in
21:34 58.2 °F 46.5 °F 30.06 in North 2.0 mph 4.0 mph 65% 0.00 in
21:39 58.1 °F 46.4 °F 30.06 in Calm   2.0 mph 65% 0.00 in
21:44 58.0 °F 46.3 °F 30.06 in Calm     65% 0.00 in
21:49 58.0 °F 45.9 °F 30.06 in Calm   2.0 mph 64% 0.00 in
21:54 57.9 °F 46.2 °F 30.06 in North 2.0 mph 2.0 mph 65% 0.00 in
21:59 57.8 °F 46.1 °F 30.06 in North 1.0 mph 2.0 mph 65% 0.00 in
22:04 57.8 °F 46.1 °F 30.06 in Calm   2.0 mph 65% 0.00 in
22:09 57.7 °F 46.0 °F 30.06 in Calm   3.0 mph 65% 0.00 in
22:14 57.7 °F 46.0 °F 30.06 in Calm   3.0 mph 65% 0.00 in
22:19 57.6 °F 45.9 °F 30.06 in Calm   5.0 mph 65% 0.00 in
22:24 57.5 °F 45.8 °F 30.06 in North 1.0 mph 5.0 mph 65% 0.00 in
22:29 57.3 °F 46.0 °F 30.06 in NNW 2.0 mph 4.0 mph 66% 0.00 in
22:34 57.1 °F 45.8 °F 30.06 in North 1.0 mph 5.0 mph 66% 0.00 in
22:39 56.8 °F 45.6 °F 30.06 in NNE 2.0 mph 5.0 mph 66% 0.00 in
22:44 56.5 °F 45.3 °F 30.06 in North 2.0 mph 3.0 mph 66% 0.00 in
22:49 56.2 °F 45.4 °F 30.06 in North 1.0 mph 4.0 mph 67% 0.00 in
22:54 56.1 °F 45.7 °F 30.06 in Calm   4.0 mph 68% 0.00 in
22:59 56.0 °F 45.6 °F 30.06 in Calm   5.0 mph 68% 0.00 in
23:04 55.9 °F 45.5 °F 30.07 in NNW 1.0 mph 5.0 mph 68% 0.00 in
23:09 55.7 °F 45.3 °F 30.07 in NNW 1.0 mph 5.0 mph 68% 0.00 in
23:15 55.4 °F 45.0 °F 30.07 in NNW 1.0 mph 5.0 mph 68% 0.00 in
23:24 54.7 °F 44.7 °F 30.07 in NNW 1.0 mph 4.0 mph 69% 0.00 in
23:29 54.3 °F 44.7 °F 30.07 in Calm   3.0 mph 70% 0.00 in
23:34 53.8 °F 44.6 °F 30.08 in Calm   2.0 mph 71% 0.00 in
23:39 53.4 °F 44.6 °F 30.07 in Calm     72% 0.00 in
23:44 52.9 °F 44.1 °F 30.07 in Calm     72% 0.00 in
23:49 52.4 °F 44.0 °F 30.07 in Calm     73% 0.00 in
23:54 52.0 °F 44.0 °F 30.07 in Calm     74% 0.00 in
23:59 51.6 °F 43.9 °F 30.07 in Calm     75% 0.00 in
Buffalo, New York, USA
Compliments of Weather Underground - 2.5 mb